Погода в Покровке

Казахстан     54°17′49″N   68°21′19″E
темп.,
°C
ветер,
м/с
пор.,
м/с
влажн.,
%
обл.,
%
осадки,
мм/ч
давл.,
гПа
погр.,
м
21 января, чт
чт2100:00−16юз71492100 0.2 1014487
03:00−19юз7139397 0.0 1015311
06:00−21юз5119561 0.0 1016241
09:00−22юз6119691 0.0 1015246
12:00−22юз5109595 0.0 1016271
15:00−21юз599598 0.0 1015300
18:00−23зюз5109696 0.0 1015215
21:00−22зюз5109692 0.1 1015276
22 января, пт
пт2200:00−25зюз499893 0.1 1016143
03:00−26зюз489862 0.0 1016131
06:00−26зюз499867 0.0 1017143
09:00−26зюз479884 0.0 1017104
12:00−22зюз479691 0.1 1018258
15:00−21зюз479599 0.1 1019303
18:00−22юз369799 0.1 1020168
21:00−22зюз3598100 0.1 1021188
23 января, сб
сб2300:00−23з239894 0.1 102330
03:00−24сз229998 0.0 102420
06:00−26с349998 0.1 102674
09:00−29с3698100 0.1 1030129
12:00−31с369692 0.1 1032160
15:00−31ссз359427 0.0 1034211
18:00−34сз339524 0.0 103720
21:00−36сз229545 0.0 103919
24 января, вс
вс2400:00−34з129471 0.0 103919
03:00−33зюз2293100 0.0 104021
06:00−32юз2292100 0.0 104027
09:00−31ю2292100 0.0 103938
12:00−28юв2396100 0.1 1039177
15:00−26вюв2396100 0.1 1038196
18:00−27в349791 0.1 103978
21:00−29вюв459749 0.0 104080
25 января, пн
пн2500:00−28вюв469864 0.0 1040101
03:00−27вюв469788 0.0 103999
06:00−25вюв479693 0.0 1038174
09:00−22вюв4798100 0.2 1037229
12:00−20вюв5798100 0.8 1036232
15:00−18в4697100 0.4 1035238
18:00−18в4697100 0.8 1035189
21:00−18в4697100 0.1 1035165